When you browse on this site, cookies collect data to enhance your experience and personalize the content and advertising you see.
Visit our Privacy Policy to learn more. By continuing to use the site, you agree to this use of cookies and data.
  • In Hungary
  • List of Countries
  • For 7 days
  • Water Temperature
  • Weather Map
  • News
  • Weather Widgets
  • user-avatar
    Login

    Hourly Weather Bandipura

    Today, 28 February, Friday

    Time Temperature Precipitation Wind Pressure Humidity
    00:00 +9°C° 0 mm 2 mps 625 mmHg 57%
    01:00 +10°C° 0 mm 1 mps 625 mmHg 57%
    02:00 +10°C° 0 mm 1 mps 625 mmHg 57%
    03:00 +9°C° 0.4 mm 1 mps 625 mmHg 64%
    04:00 +9°C° 0.4 mm 1 mps 625 mmHg 71%
    05:00 +8°C° 0 mm 2 mps 624 mmHg 68%
    06:00 +9°C° 0.1 mm 2 mps 625 mmHg 68%
    07:00 +10°C° 0.1 mm 1 mps 625 mmHg 68%
    08:00 +10°C° 0.1 mm 1 mps 626 mmHg 67%
    09:00 +11°C° 0.2 mm 1 mps 626 mmHg 68%
    10:00 +11°C° 0.2 mm 1 mps 626 mmHg 69%
    11:00 +13°C° 0 mm 2 mps 626 mmHg 63%
    12:00 +12°C° 1.8 mm 2 mps 625 mmHg 72%
    13:00 +10°C° 1.8 mm 2 mps 624 mmHg 82%
    14:00 +9°C° 1.8 mm 2 mps 623 mmHg 91%
    15:00 +10°C° 0.6 mm 1 mps 623 mmHg 88%
    16:00 +10°C° 0.6 mm 1 mps 624 mmHg 85%
    17:00 +11°C° 0 mm 1 mps 624 mmHg 81%
    18:00 +10°C° 0.1 mm 1 mps 624 mmHg 80%
    19:00 +9°C° 0.1 mm 1 mps 624 mmHg 79%
    20:00 +9°C° 0.1 mm 1 mps 625 mmHg 78%
    21:00 +8°C° 0.1 mm 1 mps 625 mmHg 76%
    22:00 +7°C° 0.1 mm 2 mps 625 mmHg 74%
    23:00 +6°C° 0.1 mm 2 mps 625 mmHg 71%

    Tomorrow, 29 February, Saturday

    Time Temperature Precipitation Wind Pressure Humidity
    00:00 +6°C° 0 mm 2 mps 624 mmHg 69%
    01:00 +5°C° 0 mm 2 mps 624 mmHg 67%
    02:00 +5°C° 0 mm 2 mps 624 mmHg 65%
    03:00 +5°C° 0 mm 2 mps 624 mmHg 64%
    04:00 +5°C° 0 mm 2 mps 624 mmHg 63%
    05:00 +4°C° 0 mm 2 mps 624 mmHg 62%
    06:00 +5°C° 0 mm 2 mps 624 mmHg 61%
    07:00 +6°C° 0 mm 2 mps 624 mmHg 59%
    08:00 +6°C° 0 mm 2 mps 625 mmHg 58%
    09:00 +9°C° 0 mm 1 mps 625 mmHg 56%
    10:00 +11°C° 0 mm 1 mps 626 mmHg 53%
    11:00 +12°C° 0 mm 1 mps 626 mmHg 51%
    12:00 +13°C° 0 mm 1 mps 626 mmHg 50%
    13:00 +14°C° 0 mm 1 mps 625 mmHg 49%
    14:00 +14°C° 0 mm 1 mps 625 mmHg 48%
    15:00 +13°C° 0.1 mm 1 mps 625 mmHg 53%
    16:00 +13°C° 0.1 mm 2 mps 624 mmHg 57%
    17:00 +12°C° 0.1 mm 2 mps 624 mmHg 62%
    18:00 +11°C° 0 mm 1 mps 624 mmHg 66%
    19:00 +11°C° 0 mm 1 mps 624 mmHg 70%
    20:00 +10°C° 0 mm 1 mps 624 mmHg 73%
    21:00 +9°C° 0 mm 1 mps 624 mmHg 71%
    22:00 +9°C° 0 mm 1 mps 624 mmHg 68%
    23:00 +9°C° 0 mm 1 mps 625 mmHg 65%

    Day after tomorrow, 1 March, Sunday

    Time Temperature Precipitation Wind Pressure Humidity
    00:00 +9°C° 0 mm 1 mps 624 mmHg 66%
    01:00 +8°C° 0 mm 1 mps 624 mmHg 66%
    02:00 +8°C° 0 mm 1 mps 624 mmHg 67%
    03:00 +8°C° 0 mm 1 mps 624 mmHg 68%
    04:00 +7°C° 0 mm 1 mps 624 mmHg 70%
    05:00 +7°C° 0 mm 1 mps 623 mmHg 72%
    06:00 +7°C° 0 mm 1 mps 624 mmHg 70%
    07:00 +8°C° 0 mm 1 mps 625 mmHg 67%
    08:00 +8°C° 0 mm 1 mps 625 mmHg 65%
    09:00 +10°C° 0 mm 1 mps 626 mmHg 61%
    10:00 +12°C° 0 mm 1 mps 626 mmHg 57%
    11:00 +13°C° 0 mm 1 mps 626 mmHg 53%
    12:00 +14°C° 0 mm 1 mps 626 mmHg 51%
    13:00 +15°C° 0 mm 1 mps 626 mmHg 49%
    14:00 +16°C° 0 mm 1 mps 626 mmHg 47%
    15:00 +15°C° 0 mm 1 mps 626 mmHg 48%
    16:00 +15°C° 0 mm 1 mps 625 mmHg 49%
    17:00 +13°C° 0 mm 0 mps 625 mmHg 50%
    18:00 +13°C° 0 mm 1 mps 625 mmHg 52%
    19:00 +10°C° 0 mm 2 mps 625 mmHg 55%
    20:00 +9°C° 0 mm 2 mps 625 mmHg 57%
    21:00 +8°C° 0 mm 2 mps 625 mmHg 56%
    22:00 +7°C° 0 mm 3 mps 625 mmHg 54%
    23:00 +7°C° 0 mm 3 mps 625 mmHg 53%

    2 March, Monday

    Time Temperature Precipitation Wind Pressure Humidity
    00:00 +5°C° 0 mm 3 mps 625 mmHg 52%
    01:00 +5°C° 0 mm 3 mps 625 mmHg 51%
    02:00 +4°C° 0 mm 3 mps 625 mmHg 50%
    03:00 +4°C° 0 mm 3 mps 624 mmHg 50%
    04:00 +3°C° 0 mm 3 mps 624 mmHg 49%
    05:00 +3°C° 0 mm 3 mps 624 mmHg 49%
    06:00 +4°C° 0 mm 3 mps 624 mmHg 47%
    07:00 +5°C° 0 mm 3 mps 625 mmHg 46%
    08:00 +6°C° 0 mm 2 mps 625 mmHg 45%
    09:00 +8°C° 0 mm 2 mps 626 mmHg 42%
    10:00 +11°C° 0 mm 1 mps 626 mmHg 39%
    11:00 +14°C° 0 mm 1 mps 626 mmHg 36%
    12:00 +14°C° 0 mm 1 mps 626 mmHg 35%
    13:00 +15°C° 0 mm 1 mps 626 mmHg 35%
    14:00 +16°C° 0 mm 1 mps 626 mmHg 34%
    15:00 +16°C° 0 mm 1 mps 625 mmHg 36%
    16:00 +15°C° 0 mm 1 mps 625 mmHg 38%
    17:00 +14°C° 0 mm 1 mps 625 mmHg 40%
    18:00 +13°C° 0 mm 1 mps 625 mmHg 42%
    19:00 +10°C° 0 mm 2 mps 625 mmHg 45%
    20:00 +8°C° 0 mm 3 mps 625 mmHg 48%
    21:00 +8°C° 0 mm 3 mps 625 mmHg 47%
    22:00 +7°C° 0 mm 3 mps 625 mmHg 46%
    23:00 +5°C° 0 mm 3 mps 625 mmHg 45%

    3 March, Tuesday

    Time Temperature Precipitation Wind Pressure Humidity
    00:00 +5°C° 0 mm 3 mps 625 mmHg 45%
    01:00 +5°C° 0 mm 3 mps 625 mmHg 44%
    02:00 +4°C° 0 mm 3 mps 625 mmHg 43%
    03:00 +4°C° 0 mm 3 mps 625 mmHg 43%
    04:00 +4°C° 0 mm 3 mps 624 mmHg 43%
    05:00 +3°C° 0 mm 3 mps 624 mmHg 43%
    06:00 +4°C° 0 mm 3 mps 625 mmHg 42%
    07:00 +5°C° 0 mm 3 mps 625 mmHg 40%
    08:00 +6°C° 0 mm 2 mps 625 mmHg 39%
    09:00 +8°C° 0 mm 2 mps 626 mmHg 37%
    10:00 +12°C° 0 mm 2 mps 626 mmHg 35%
    11:00 +14°C° 0 mm 1 mps 626 mmHg 33%
    12:00 +15°C° 0 mm 1 mps 626 mmHg 32%
    13:00 +15°C° 0 mm 1 mps 625 mmHg 32%
    14:00 +16°C° 0 mm 1 mps 625 mmHg 32%
    15:00 +16°C° 0 mm 1 mps 625 mmHg 34%
    16:00 +15°C° 0 mm 1 mps 624 mmHg 36%
    17:00 +14°C° 0 mm 1 mps 624 mmHg 38%
    18:00 +13°C° 0 mm 1 mps 624 mmHg 41%
    19:00 +10°C° 0 mm 2 mps 624 mmHg 44%
    20:00 +9°C° 0 mm 3 mps 624 mmHg 46%
    21:00 +8°C° 0 mm 3 mps 624 mmHg 45%
    22:00 +7°C° 0 mm 3 mps 624 mmHg 45%
    23:00 +7°C° 0 mm 3 mps 624 mmHg 44%

    4 March, Wednesday

    Time Temperature Precipitation Wind Pressure Humidity
    00:00 +5°C° 0 mm 3 mps 623 mmHg 44%
    01:00 +5°C° 0 mm 3 mps 623 mmHg 44%
    02:00 +5°C° 0 mm 3 mps 623 mmHg 43%
    03:00 +4°C° 0 mm 3 mps 623 mmHg 44%
    04:00 +4°C° 0 mm 3 mps 622 mmHg 44%
    05:00 +4°C° 0 mm 3 mps 622 mmHg 45%
    06:00 +5°C° 0 mm 2 mps 623 mmHg 44%
    07:00 +6°C° 0 mm 2 mps 623 mmHg 43%
    08:00 +7°C° 0 mm 2 mps 624 mmHg 42%
    09:00 +10°C° 0 mm 1 mps 624 mmHg 40%
    10:00 +12°C° 0 mm 1 mps 625 mmHg 37%
    11:00 +14°C° 0 mm 1 mps 625 mmHg 35%
    12:00 +14°C° 0 mm 1 mps 625 mmHg 35%
    13:00 +15°C° 0 mm 1 mps 624 mmHg 36%
    14:00 +15°C° 0 mm 1 mps 624 mmHg 36%
    15:00 +14°C° 0.1 mm 2 mps 623 mmHg 45%
    16:00 +12°C° 0.1 mm 2 mps 622 mmHg 54%
    17:00 +10°C° 0.1 mm 2 mps 622 mmHg 63%
    18:00 +10°C° 0.3 mm 2 mps 622 mmHg 66%
    19:00 +9°C° 0.3 mm 2 mps 622 mmHg 69%
    20:00 +8°C° 0.3 mm 2 mps 623 mmHg 72%
    21:00 +8°C° 0.1 mm 2 mps 623 mmHg 71%
    22:00 +8°C° 0.1 mm 2 mps 623 mmHg 70%
    23:00 +9°C° 0.1 mm 1 mps 623 mmHg 69%
    Show more